Theta_e
311 311 312 311 311 315 318 318 316 316 316 312 314 315 316 318 317 319 318 320 320 323 326 324 323 324 332 337 337 338 338 338 342 341 339 349 349 348 351 350 351 349 348 343 340 340 337 337 338 337 335 329 328 328 325 321 317 321 330 337 338 339 339 338 338 337 337 336 336 336 336 335 333 331 327 320 315 315 315 316 315 313 311 310 310 310 310 311 310 310 309 311 313 311 310 309 308
312 311 311 311 312 318 320 316 315 315 314 311 314 316 316 318 317 317 318 319 319 320 320 320 320 322 331 340 342 341 343 345 348 348 347 349 349 349 351 350 350 349 347 343 340 339 337 338 337 337 333 327 329 330 328 326 322 320 323 332 337 338 338 338 338 337 337 336 336 336 335 335 333 330 326 320 316 316 317 317 317 314 312 311 310 311 312 313 313 312 311 314 315 313 312 311 310
311 312 313 312 315 319 319 315 314 313 312 311 313 317 317 317 317 317 318 318 318 319 318 319 324 331 337 342 344 342 346 349 348 347 347 349 349 349 350 350 349 348 347 342 340 339 337 337 337 337 330 327 330 331 330 330 328 324 322 325 332 336 337 337 337 337 337 336 336 335 335 333 331 328 324 321 320 319 322 321 318 316 313 313 314 313 314 315 316 316 315 316 316 314 314 313 313
311 313 316 317 316 317 317 315 315 313 311 311 313 317 317 317 317 317 318 318 319 319 319 322 329 341 344 344 346 344 346 349 348 347 348 348 349 349 350 350 349 348 346 342 341 340 338 337 337 335 328 327 332 332 332 331 330 328 324 322 327 332 335 337 336 337 336 335 335 333 331 329 328 328 324 324 327 328 332 328 319 317 317 320 320 316 316 316 318 319 319 317 316 315 315 315 314
312 313 316 320 319 316 318 315 316 314 312 313 313 316 317 317 316 317 319 318 320 319 321 325 333 344 346 347 348 346 348 349 347 346 348 348 349 350 350 350 349 347 345 343 342 341 338 337 337 333 326 328 332 332 332 332 332 329 326 322 323 328 332 335 336 336 335 332 331 330 330 331 332 333 327 324 329 331 333 330 321 321 326 328 324 320 318 316 319 320 319 317 317 317 315 315 315
314 316 315 319 320 317 317 314 314 313 315 316 315 317 317 317 317 318 319 320 321 319 324 330 337 344 345 349 349 349 349 349 348 346 348 348 350 350 349 349 348 347 345 344 343 340 338 338 337 331 326 328 332 333 333 332 332 330 327 322 322 325 328 332 334 334 332 330 331 333 335 338 337 336 331 321 324 328 330 328 323 326 331 330 328 326 322 317 320 320 320 318 318 318 316 315 315
317 318 316 317 318 317 317 314 314 314 317 317 316 317 317 317 318 320 322 323 322 321 329 334 338 342 345 349 349 348 347 349 348 346 347 349 350 349 349 349 348 347 345 345 343 340 338 338 337 331 326 328 332 333 333 333 332 331 328 322 322 325 328 331 332 331 331 332 334 338 339 340 339 337 333 324 321 326 328 326 325 330 332 329 330 331 327 321 321 321 321 320 319 318 317 315 315
317 320 318 317 317 316 316 315 315 316 317 317 317 317 316 318 319 322 324 326 324 324 329 328 329 336 344 348 349 349 347 348 348 347 348 349 350 349 349 349 348 347 345 345 343 341 338 338 337 332 326 328 331 332 333 333 332 332 329 322 320 325 327 329 330 330 332 334 337 339 339 339 338 335 334 328 323 324 326 324 326 332 331 328 331 333 330 323 320 322 322 321 320 319 318 315 314
317 319 317 317 317 315 314 315 316 317 317 317 317 316 317 318 319 322 324 328 328 325 324 320 323 334 345 349 349 349 348 348 347 347 348 349 349 349 349 348 348 347 346 345 343 340 338 338 338 334 328 328 330 331 332 333 332 332 329 321 319 324 327 328 329 331 333 335 336 338 339 338 336 333 331 330 326 322 323 323 325 330 331 331 332 332 328 321 319 322 323 323 322 320 320 317 315
316 317 316 316 316 314 313 314 315 316 316 316 316 317 318 318 319 323 327 332 331 325 322 320 327 338 345 350 349 348 348 348 347 347 348 349 349 348 349 348 348 347 345 345 343 340 339 338 338 335 330 329 330 331 332 333 332 332 329 320 318 324 327 329 330 331 332 333 335 337 337 335 332 331 327 328 328 323 321 321 323 329 332 333 332 330 325 320 320 322 324 324 323 322 322 320 317
317 316 317 316 314 312 312 313 315 316 316 315 317 317 317 318 319 324 329 333 330 324 322 322 328 337 346 351 349 348 348 348 347 347 348 349 349 348 348 348 347 347 346 345 342 340 339 338 337 336 330 329 329 330 331 332 332 332 329 321 318 321 324 328 331 332 331 332 333 333 332 330 328 328 326 326 328 324 320 319 323 330 332 333 332 328 324 321 320 321 324 325 324 324 325 324 321
318 316 315 314 313 313 313 314 315 316 316 316 317 317 317 317 318 323 329 335 331 322 322 327 333 338 342 348 349 347 348 348 348 347 347 348 349 348 347 348 348 347 347 345 342 340 339 338 337 335 331 327 328 329 331 332 332 332 328 322 319 320 324 327 329 330 329 328 330 330 327 325 326 328 328 329 328 328 326 320 321 329 332 333 331 328 325 321 321 320 322 324 324 325 326 326 324
317 316 315 314 315 315 314 314 314 315 315 316 317 317 317 317 318 323 330 336 332 326 327 332 339 342 343 348 348 348 348 348 348 346 347 348 348 348 347 348 348 347 346 345 343 341 339 339 337 335 332 327 328 329 329 332 332 332 329 323 322 322 324 326 328 329 329 328 329 329 325 325 327 328 330 331 330 331 332 326 320 323 329 332 330 328 325 320 321 320 320 323 323 324 325 325 325
316 317 315 314 315 315 314 314 315 314 315 316 317 316 317 317 317 322 329 334 335 337 339 338 341 343 346 348 347 347 349 348 347 347 346 347 348 348 347 347 347 346 345 345 344 341 339 340 339 336 332 328 332 332 330 332 332 332 329 324 324 324 324 326 329 331 330 330 329 327 325 325 327 328 330 329 330 333 333 330 323 319 324 328 328 325 322 320 321 321 320 321 323 324 325 325 324
315 316 315 315 314 314 314 314 315 314 315 317 317 316 318 317 316 320 325 332 340 343 343 342 344 344 344 344 345 348 348 348 347 347 346 346 348 348 347 347 346 345 344 344 342 340 339 340 340 337 331 330 334 336 334 333 332 333 329 324 324 325 324 325 329 330 329 328 326 325 325 325 326 329 330 327 327 331 331 331 328 323 321 324 325 321 320 322 323 323 322 321 322 324 324 324 324
315 315 315 314 314 313 314 315 315 314 315 317 318 317 317 318 318 318 323 334 341 342 344 345 346 345 344 344 345 348 347 348 347 347 346 346 347 347 347 346 345 344 343 341 339 340 340 340 340 337 333 333 334 335 336 335 333 333 328 323 323 325 325 325 328 328 327 326 325 326 326 326 327 328 329 326 325 328 330 331 331 326 321 321 323 320 321 323 324 325 326 323 321 324 325 323 323
315 315 315 314 313 313 314 315 315 314 315 317 318 317 317 317 319 316 320 335 339 337 344 346 346 346 346 347 347 348 347 347 347 347 346 346 346 346 346 346 345 343 341 339 339 340 341 340 340 338 337 336 335 335 335 335 334 333 329 324 324 326 326 327 327 326 325 326 327 328 328 329 329 329 328 327 326 329 331 331 331 328 323 321 321 320 322 324 325 327 328 327 323 324 326 325 326
315 315 315 314 314 314 315 315 315 315 316 317 317 317 317 316 318 317 318 330 332 334 343 346 346 347 346 346 347 347 347 347 347 347 347 346 346 345 344 344 344 343 341 340 340 341 342 341 340 340 339 337 337 337 336 335 334 334 331 327 327 327 326 326 325 327 328 329 330 331 332 332 331 331 329 326 328 330 331 332 332 331 328 324 321 320 322 324 326 328 329 328 325 324 327 327 328
315 316 315 314 315 315 315 315 316 316 316 317 318 317 317 317 317 317 318 322 323 329 340 343 346 347 346 346 346 347 347 347 348 347 347 346 345 345 343 343 343 342 341 342 342 342 342 341 341 340 340 339 338 337 336 335 334 334 332 328 329 327 326 327 328 330 332 331 332 333 332 332 332 333 329 323 326 331 331 332 332 332 332 328 323 320 321 325 327 328 328 328 327 326 326 328 330
315 316 315 315 316 315 315 315 316 316 317 317 317 317 316 318 317 316 318 319 320 324 332 338 344 347 346 346 346 347 347 347 347 347 346 345 345 344 343 343 343 343 342 342 342 342 342 341 341 340 340 339 338 338 337 337 335 333 332 329 329 328 329 332 332 332 333 333 333 333 333 332 333 333 327 320 322 329 331 331 331 330 330 328 324 322 320 322 326 328 329 329 329 328 327 327 331
315 316 314 316 316 315 316 316 316 316 316 317 317 317 316 317 316 317 317 318 321 322 327 334 342 346 346 346 346 347 347 347 347 346 346 345 344 343 343 342 342 343 342 342 342 342 342 341 340 340 340 339 338 339 340 339 335 334 333 329 328 331 334 335 333 333 334 334 333 335 334 333 334 332 325 321 321 325 326 327 328 327 327 325 325 328 325 320 322 325 328 330 329 329 327 326 331
316 316 314 317 317 315 316 316 316 316 316 317 317 316 316 316 316 317 317 317 319 320 324 331 342 347 345 345 346 346 347 347 346 345 344 344 344 343 342 342 342 341 341 342 342 342 342 341 341 340 340 340 340 341 340 339 336 335 333 329 329 333 337 336 333 334 334 333 334 335 333 333 336 332 324 324 324 323 323 324 326 325 326 323 322 328 325 319 321 324 326 328 328 329 328 329 331
315 316 316 317 317 316 316 316 315 316 316 317 317 316 316 316 317 317 316 317 317 319 321 330 342 347 345 345 345 346 346 346 345 343 342 342 343 343 342 342 342 341 341 341 341 341 341 341 340 340 340 340 340 341 339 337 337 336 332 328 330 334 337 335 333 334 333 332 333 333 332 334 337 333 325 324 324 325 325 325 324 322 323 321 319 322 319 319 324 324 323 324 327 329 329 330 330
314 314 316 316 317 316 315 316 316 316 317 317 316 316 316 316 316 317 317 317 319 321 325 333 344 346 345 345 345 345 346 345 344 342 342 342 342 341 341 341 340 340 339 340 339 339 340 341 340 341 340 338 339 339 337 336 336 335 331 329 331 334 337 335 334 335 334 333 333 331 331 334 337 332 326 324 324 325 325 323 323 322 321 321 320 320 319 321 323 320 320 323 326 329 330 330 330
314 314 316 316 316 316 315 316 316 316 316 316 316 315 316 316 315 316 316 320 326 330 334 341 346 345 344 345 345 346 345 344 343 342 341 341 341 340 337 337 337 338 337 338 338 338 339 340 339 339 339 338 339 337 336 336 334 334 332 328 330 332 335 335 334 334 334 333 334 331 330 332 334 331 326 325 325 325 324 324 324 324 324 324 323 323 323 322 322 320 322 324 325 329 331 330 330
314 314 315 316 315 315 316 316 316 316 316 315 315 316 316 316 315 316 320 327 333 338 340 344 345 344 344 344 345 345 345 345 343 342 341 340 340 335 326 327 333 336 338 338 337 337 337 337 336 335 336 336 338 337 335 335 334 335 332 326 328 333 334 334 333 334 333 333 333 332 330 329 331 329 327 326 326 326 326 326 326 325 325 326 325 325 324 323 323 323 324 327 328 329 331 328 329
316 315 315 316 316 316 316 315 315 314 315 315 314 315 315 316 314 316 328 334 337 341 342 344 345 344 344 344 345 345 344 344 343 342 341 339 337 328 320 326 334 337 338 337 335 335 336 335 335 334 335 336 337 337 335 335 334 335 331 325 328 334 334 333 333 334 333 333 333 332 329 329 330 330 329 328 327 327 327 327 327 327 327 327 327 325 325 325 325 325 326 327 328 329 329 327 330
315 314 314 315 315 315 315 315 315 314 314 315 315 315 315 316 314 316 330 334 336 339 342 343 344 344 344 344 345 344 344 344 343 343 341 338 334 324 321 329 335 338 336 335 334 335 335 335 334 334 334 334 335 336 335 335 334 334 332 326 327 332 332 333 334 334 333 333 333 331 329 329 330 331 330 329 328 328 328 329 329 328 329 328 328 327 326 327 327 327 327 326 326 327 327 327 329
314 314 313 314 314 314 315 315 315 315 314 315 315 314 314 315 315 318 327 331 335 339 341 342 343 344 344 344 344 343 343 343 343 343 340 335 331 323 325 333 335 335 333 330 331 333 335 334 334 334 334 334 334 336 336 335 334 334 332 327 326 329 330 332 333 333 332 333 333 331 328 328 330 331 329 329 329 329 330 330 330 329 329 329 329 328 327 327 328 327 326 326 327 328 328 327 329
314 315 313 314 314 313 315 315 314 315 314 314 314 312 313 315 316 317 323 331 336 339 341 341 343 344 343 343 343 342 342 342 343 342 338 334 331 325 328 333 332 331 329 325 328 331 332 334 335 334 334 335 335 336 336 335 333 333 332 327 325 327 328 331 332 332 332 332 333 331 329 329 329 330 330 328 329 330 331 331 331 331 329 329 328 328 328 327 328 328 326 327 328 330 330 330 331
314 314 314 313 313 313 315 315 314 315 314 314 314 311 313 316 316 317 324 333 336 337 339 340 343 344 343 343 342 341 342 343 343 342 339 332 329 328 330 332 330 329 329 328 331 331 331 333 335 336 336 336 336 337 336 334 333 332 332 328 326 327 328 331 332 333 332 331 333 332 330 329 329 330 330 329 330 331 331 331 331 331 330 329 328 329 329 328 328 329 329 328 328 330 332 331 330
314 313 313 314 313 313 315 315 314 315 314 314 314 312 313 316 316 317 325 334 335 336 338 339 343 344 343 342 342 342 342 343 343 343 340 330 329 333 331 330 329 329 329 330 331 332 333 334 336 338 338 337 337 337 335 333 333 333 332 329 328 328 328 331 333 333 332 331 333 331 329 329 329 330 330 330 330 330 331 331 330 330 329 329 329 329 329 328 329 330 330 329 329 330 330 329 328
315 313 313 314 313 313 314 314 315 315 314 315 314 313 315 316 316 318 324 332 334 335 337 338 342 344 343 342 341 342 342 343 342 342 340 332 333 335 329 328 329 328 329 330 331 334 336 335 337 338 337 337 336 336 335 334 333 332 332 329 328 328 329 332 333 333 332 331 332 330 328 329 329 330 330 330 330 331 333 332 329 329 328 329 330 329 328 329 330 329 329 329 330 330 329 329 330
314 314 313 315 314 313 313 313 315 315 314 315 314 314 315 316 317 318 321 328 332 332 336 337 339 342 343 342 341 342 342 342 342 339 338 336 335 334 330 329 330 328 329 330 332 336 337 337 337 337 337 337 336 336 336 335 333 332 331 329 329 329 331 333 333 332 331 331 331 329 329 329 328 329 328 328 328 330 334 332 329 328 328 329 330 329 329 329 329 329 328 329 330 330 330 331 330
315 315 314 314 314 313 313 313 314 314 314 314 315 315 315 316 317 317 318 324 328 331 333 335 338 340 342 342 340 341 342 342 342 339 337 338 337 335 331 330 329 328 328 329 333 337 338 337 337 337 337 337 336 335 335 334 333 332 330 330 329 330 332 333 332 331 330 330 331 330 330 328 327 327 327 327 326 328 331 330 328 328 328 329 329 328 328 329 329 329 329 329 329 329 329 329 328
314 315 314 313 313 313 313 314 314 314 314 314 314 314 315 316 316 317 317 319 324 329 333 334 336 338 341 342 341 341 342 342 342 340 338 339 339 336 333 330 328 328 328 330 334 335 336 336 336 337 336 336 336 335 334 333 333 332 331 330 330 330 332 332 331 331 329 329 331 331 330 329 328 327 327 327 327 328 329 327 327 328 328 328 329 329 329 329 328 329 329 329 328 328 328 328 329
314 314 314 313 313 313 315 314 314 314 313 314 314 315 315 315 316 317 319 318 320 326 332 335 335 336 339 341 341 341 341 341 341 341 340 339 339 337 333 330 329 331 332 332 334 335 335 336 336 336 336 336 335 334 333 333 334 333 331 332 331 330 331 331 331 331 330 330 330 330 330 329 328 328 328 328 328 329 328 328 328 329 329 329 329 329 330 329 328 328 328 328 327 328 328 329 330
314 314 313 314 313 313 315 314 314 314 313 313 314 314 314 316 316 317 319 319 318 322 328 333 334 334 335 339 341 341 340 340 340 341 341 338 338 338 334 332 333 335 335 335 335 335 336 337 336 336 336 336 335 334 334 334 333 332 332 333 332 331 331 331 331 331 331 331 330 329 329 328 329 329 328 328 328 329 328 328 329 329 330 330 330 329 330 329 328 329 328 327 328 329 329 328 329
315 314 313 313 314 314 315 314 314 313 313 314 314 315 315 316 316 317 318 319 319 319 322 329 332 332 333 335 340 341 339 339 340 341 341 338 336 336 336 335 335 336 336 336 336 336 337 337 337 337 337 336 335 335 334 333 333 332 332 333 333 332 331 331 331 331 330 330 329 329 329 329 330 329 328 327 328 329 328 328 328 328 329 330 330 330 329 330 328 328 328 327 328 329 329 329 328
315 315 314 313 314 314 313 314 314 314 314 314 314 314 315 316 316 317 318 319 320 320 321 326 331 331 331 332 337 341 340 340 340 340 341 340 337 337 337 336 335 335 335 336 336 336 337 337 337 337 336 335 335 335 335 333 333 332 331 332 332 331 331 331 331 330 329 329 329 330 329 330 329 328 327 328 329 329 328 327 327 327 329 330 331 330 329 329 328 327 327 327 328 329 329 329 328
315 316 314 313 315 314 313 314 314 314 314 315 314 312 313 316 316 316 319 322 322 322 322 323 328 332 332 331 334 339 340 340 341 340 341 341 340 339 338 337 336 335 335 336 336 336 337 338 337 337 336 335 335 336 335 334 333 332 331 333 332 331 331 331 331 330 330 330 330 330 330 329 327 326 327 328 329 328 327 327 327 327 328 329 330 331 329 328 328 328 328 327 327 329 329 328 328
314 316 315 314 314 314 314 313 313 312 312 316 315 312 312 315 317 317 319 323 322 324 324 323 324 328 332 333 333 336 339 340 341 340 340 341 342 341 340 339 338 337 336 336 337 337 337 337 338 338 336 335 335 336 335 334 333 332 332 333 331 331 331 331 331 330 329 330 330 330 328 327 326 327 328 328 329 328 328 328 327 327 327 327 329 331 330 329 329 329 329 328 328 330 330 329 328
313 315 316 314 314 313 313 313 312 311 312 316 316 313 312 314 317 317 319 320 320 325 328 326 324 323 327 332 334 336 338 339 339 339 340 340 341 341 341 340 339 338 338 338 338 337 336 336 337 338 338 336 336 336 335 334 333 333 333 333 331 331 332 332 332 330 328 329 329 329 329 328 328 328 327 328 328 328 327 327 327 328 327 326 327 329 330 329 330 331 330 330 330 330 330 330 329
313 315 314 313 313 313 314 313 312 312 314 316 316 314 313 313 315 318 320 319 320 326 329 328 326 323 323 327 333 336 337 338 338 338 340 339 339 341 339 337 338 338 338 338 338 337 336 336 336 337 337 336 336 336 335 335 333 333 333 333 332 332 332 332 331 328 328 329 330 330 329 327 326 325 325 326 325 324 324 325 326 327 328 327 327 328 328 328 329 330 329 329 330 330 330 330 330
314 314 313 313 313 314 314 313 312 314 315 313 314 316 313 312 315 318 320 317 321 329 330 328 328 327 326 327 332 336 336 337 338 338 340 339 339 339 336 334 336 337 339 339 338 337 337 336 334 334 335 335 335 336 335 334 333 333 333 332 332 332 333 332 329 328 329 330 330 329 328 326 323 322 322 322 322 321 321 324 326 327 327 328 328 329 328 326 327 328 327 327 329 330 330 330 330
314 314 313 313 314 313 314 314 313 315 315 313 314 315 313 311 313 316 318 318 325 330 330 329 330 329 329 331 333 336 337 338 339 339 339 338 338 338 337 336 336 337 338 338 338 338 337 336 334 332 333 333 334 334 334 334 333 333 332 332 332 332 332 330 328 328 328 328 328 327 326 326 323 322 322 321 320 320 320 321 323 324 325 326 327 328 327 325 326 326 326 327 328 330 330 330 330
314 313 313 313 314 314 315 315 314 315 315 314 314 315 314 311 312 320 325 325 328 330 329 330 332 330 331 333 334 336 338 339 339 339 338 337 337 338 337 337 338 338 338 338 337 336 335 334 332 331 332 332 333 333 334 334 332 331 331 331 331 331 330 328 328 328 327 327 327 326 326 326 325 324 321 319 320 321 320 320 321 321 321 322 323 326 327 326 325 325 325 326 327 329 330 329 329
313 313 313 314 314 315 314 314 315 315 314 314 314 315 314 311 314 324 329 329 328 329 329 329 330 331 332 333 334 336 338 338 338 338 338 337 335 336 336 337 338 337 338 338 336 334 332 332 332 331 332 333 332 331 333 333 331 330 331 331 331 330 328 328 328 326 325 326 327 326 326 325 325 322 318 317 319 319 318 318 319 319 319 319 320 323 325 326 325 325 324 325 328 329 330 330 330
313 313 313 314 313 314 314 314 315 314 313 315 315 315 314 313 320 328 328 328 327 328 329 330 331 332 333 334 335 336 336 337 336 337 338 337 335 336 336 337 337 337 337 336 334 333 331 331 331 331 332 332 331 330 332 333 331 331 331 331 331 330 328 328 326 321 318 318 321 325 326 325 325 322 317 317 316 316 317 318 318 319 318 318 319 319 321 323 325 325 323 325 328 329 328 328 330
312 312 313 313 313 314 315 314 313 313 313 316 315 315 313 312 322 329 328 327 328 329 330 331 332 333 332 334 335 335 335 336 336 337 337 337 337 336 335 335 336 336 336 334 332 332 331 330 329 329 331 331 330 329 331 330 328 330 331 330 330 329 328 328 324 318 315 316 320 325 326 326 325 323 321 320 318 317 320 319 319 320 318 318 318 318 319 320 323 324 324 324 326 325 324 325 328
313 313 314 314 313 313 314 313 312 312 314 316 316 315 312 313 322 328 328 328 329 329 329 330 331 332 331 332 333 334 335 336 336 336 335 335 335 334 334 333 334 335 335 334 333 332 331 329 329 329 330 329 328 326 328 328 328 330 331 331 330 329 327 326 323 320 319 321 324 326 325 326 325 324 323 323 321 320 321 319 319 319 317 317 318 318 318 319 321 322 323 323 323 322 322 323 325
314 314 313 313 314 314 314 315 315 314 313 315 315 314 316 320 325 328 328 328 329 329 329 329 330 331 331 331 333 334 335 335 335 335 334 334 334 333 333 333 333 334 334 334 334 332 330 329 330 330 329 327 325 324 327 329 330 329 329 329 330 328 325 324 323 322 321 322 325 326 325 325 325 324 324 323 320 318 319 319 320 319 315 316 318 318 318 319 320 320 319 321 321 320 321 322 323
314 314 313 314 316 315 314 316 317 315 313 315 315 314 318 323 325 327 327 327 328 327 328 329 329 330 331 331 332 332 333 333 333 334 333 333 333 333 334 333 333 333 333 333 333 332 330 330 331 330 328 326 324 324 327 329 328 327 326 327 329 327 325 324 322 320 319 319 323 326 323 322 322 322 321 320 317 316 317 319 321 319 313 314 318 319 318 317 318 318 320 322 322 322 323 322 322
314 313 314 315 316 315 315 315 315 314 313 314 314 314 317 320 323 326 327 328 329 327 327 329 329 330 331 330 331 331 332 332 333 334 333 333 333 333 334 333 332 333 332 332 332 332 330 330 329 328 326 326 324 324 326 327 327 326 325 326 328 327 326 325 320 317 316 318 323 325 321 317 317 317 316 316 316 316 317 319 321 318 312 313 317 317 317 317 317 320 322 323 323 323 324 323 323
314 314 315 315 315 314 314 314 315 315 314 314 314 314 315 317 321 326 327 329 330 328 327 328 329 330 331 330 330 330 330 330 331 332 332 332 333 333 333 332 332 332 332 332 332 331 331 330 328 327 326 327 325 324 326 326 327 327 326 325 326 327 327 325 319 316 316 320 323 323 320 318 316 315 315 316 318 319 319 320 321 316 310 313 317 317 317 318 319 321 322 322 323 323 323 324 323
313 314 314 315 316 315 315 315 315 314 313 314 314 314 318 323 325 326 327 327 329 328 327 327 328 330 330 330 329 329 329 329 329 330 331 332 333 332 332 331 332 332 333 332 331 331 331 330 328 327 327 326 325 324 325 326 327 328 328 327 326 327 328 325 319 317 318 322 323 322 322 320 318 318 317 318 321 321 320 321 321 317 312 313 316 317 317 318 320 321 322 321 322 322 322 323 323
313 313 314 314 315 316 316 316 315 314 313 314 314 314 321 325 324 324 325 325 327 328 327 327 328 329 329 329 329 329 329 329 328 329 330 330 330 330 330 330 331 332 332 332 332 332 332 330 327 326 327 326 325 324 324 324 326 328 329 328 327 328 327 324 320 319 320 323 323 323 323 321 319 318 316 318 320 320 321 322 321 319 316 315 316 316 316 319 320 321 321 321 321 322 322 323 323
315 314 314 314 315 315 314 315 315 314 313 314 314 315 322 325 323 323 324 324 326 328 327 327 328 328 328 327 328 328 328 328 328 328 328 329 329 329 330 330 330 331 331 331 332 332 332 331 328 326 326 326 325 324 323 324 326 328 329 328 327 327 326 323 320 321 321 321 322 323 323 321 318 314 312 317 319 320 322 322 320 319 317 316 317 316 316 319 320 319 320 320 321 321 321 322 323
Wind_Speed
6 7 7 7 9 8 6 7 5 3 4 6 5 4 2 2 3 2 2 2 2 2 3 6 8 10 8 8 7 8 8 6 7 3 0 3 6 15 16 17 21 23 24 28 30 27 24 22 20 20 18 18 17 17 16 16 17 18 20 21 22 22 22 21 20 19 18 17 16 14 13 12 12 11 11 11 13 13 13 15 17 17 18 19 18 17 18 18 18 18 18 18 18 21 25 26 25
8 8 7 8 10 6 5 6 5 3 5 6 4 2 3 3 2 3 1 3 4 5 9 11 13 11 8 8 9 9 4 4 8 6 4 6 12 14 15 17 21 23 24 28 30 27 25 22 21 20 19 19 18 17 16 16 16 17 18 19 21 21 21 20 20 20 18 17 15 14 12 12 11 11 12 12 13 13 13 15 17 17 18 19 18 18 17 17 17 17 17 16 17 20 24 26 26
10 9 8 8 9 5 3 5 6 3 5 5 2 3 2 2 1 2 4 6 8 10 12 12 12 6 7 7 5 6 1 4 5 6 6 11 13 13 16 18 21 23 23 28 29 27 26 23 21 20 19 19 19 18 17 16 15 16 16 18 19 20 21 20 20 19 17 15 14 13 12 12 12 11 12 13 13 13 13 14 17 17 18 18 17 18 17 16 16 16 16 16 18 21 23 25 26
12 11 10 8 7 6 5 5 5 4 5 4 0 5 3 1 4 5 7 9 10 11 11 10 7 1 4 4 1 3 0 2 2 4 8 11 12 15 18 19 22 23 23 28 26 24 26 24 22 20 20 20 19 18 16 15 14 14 15 16 18 19 20 19 19 17 16 14 13 12 11 11 12 12 12 13 14 14 14 14 16 18 17 17 17 18 17 16 15 16 17 18 20 21 22 23 25
11 11 12 8 6 4 4 4 3 5 4 3 0 5 4 4 6 8 9 10 10 10 8 7 4 3 1 2 4 3 2 2 2 5 9 10 13 18 19 20 22 22 23 25 23 24 26 24 22 21 20 21 19 17 15 14 13 13 14 15 17 18 19 19 18 16 15 14 14 12 12 12 13 13 12 13 16 16 15 14 16 18 17 15 16 17 17 16 15 16 18 19 20 21 22 22 23
10 8 10 6 5 2 4 4 4 7 3 3 3 3 3 6 8 10 10 10 8 7 5 5 3 3 2 4 4 3 2 2 4 6 9 12 16 19 21 21 21 22 23 22 22 24 25 23 22 21 20 20 19 17 15 13 13 12 12 14 16 17 18 18 18 17 16 15 14 13 13 14 14 13 11 12 15 16 15 15 17 18 16 16 16 17 16 17 17 18 18 19 20 21 21 21 22
10 8 9 7 3 4 6 5 5 5 2 2 5 5 7 8 10 11 10 8 4 2 4 3 3 3 2 5 5 6 2 3 5 7 11 15 19 21 21 20 20 22 22 21 20 24 25 23 22 21 20 20 18 16 15 13 12 12 12 12 14 16 17 18 18 17 16 15 14 15 15 15 13 11 9 10 14 16 15 17 19 18 16 16 17 16 16 17 18 18 19 19 20 20 20 21 21
11 7 7 7 3 5 6 5 5 3 2 2 4 6 8 9 11 10 9 7 4 3 5 4 4 6 2 4 2 5 3 4 6 10 14 19 21 21 21 19 20 22 21 20 19 23 24 23 23 21 20 19 18 17 15 13 11 11 11 12 14 16 18 18 18 17 16 16 16 17 16 14 12 10 9 9 12 15 15 17 19 19 17 16 16 16 16 17 19 19 19 19 19 20 20 20 20
9 5 5 6 4 4 5 5 4 3 2 2 3 4 6 8 10 9 8 7 6 5 7 5 5 6 5 6 4 5 4 6 9 14 17 19 21 21 20 19 20 21 21 20 20 24 24 22 22 21 20 19 19 17 15 13 11 11 11 12 15 17 18 19 18 18 17 17 17 17 15 13 12 10 10 8 10 14 14 17 19 18 16 15 16 16 16 18 20 19 19 19 19 19 19 20 19
8 6 5 5 4 5 5 5 3 1 1 1 2 3 5 8 10 9 8 8 6 5 6 4 6 6 5 7 7 6 6 9 12 16 18 19 21 20 19 18 19 21 21 20 21 24 24 22 22 21 20 19 19 18 16 14 12 11 12 13 15 18 19 19 19 18 18 17 17 15 14 13 12 11 10 10 11 13 14 17 19 17 15 15 15 16 16 18 20 19 19 19 19 19 19 19 18
8 6 5 5 5 5 5 4 3 2 3 1 1 3 6 9 9 9 8 7 4 4 4 5 7 8 7 7 6 6 8 11 14 17 19 20 21 20 19 18 18 21 21 21 23 24 23 23 22 21 20 19 19 17 16 14 13 12 12 14 16 18 19 19 18 18 17 16 15 13 12 12 13 12 11 12 11 11 13 17 20 18 16 14 14 15 16 18 21 20 19 19 18 18 18 17 17
6 5 5 5 5 5 4 3 2 1 1 2 4 5 8 8 8 9 9 7 2 2 4 6 4 7 9 7 6 7 10 13 14 17 20 19 19 19 18 18 18 20 21 21 23 23 23 23 23 21 20 19 18 17 16 14 13 12 13 14 16 17 18 18 18 17 17 16 15 13 12 13 14 14 12 12 10 10 10 13 18 18 16 15 14 15 15 18 21 20 19 18 17 17 17 16 15
7 4 5 5 4 4 4 4 1 2 2 4 5 6 8 7 10 10 10 7 1 0 4 4 2 5 6 7 7 9 12 14 15 18 20 19 17 17 17 17 17 19 20 20 22 24 23 23 24 23 20 19 18 17 16 15 13 13 14 15 16 17 17 18 18 17 17 16 15 13 13 14 14 14 14 12 12 13 10 9 15 17 17 15 15 15 15 16 19 19 18 17 16 16 15 14 13
7 4 6 4 4 5 5 5 2 3 3 7 6 8 7 5 10 11 10 7 4 4 1 3 4 5 4 5 7 11 13 16 17 17 19 17 16 16 16 17 17 18 19 19 21 24 24 22 22 22 22 20 18 17 16 15 14 14 14 14 15 16 17 17 18 17 16 15 14 13 13 14 14 15 14 13 14 14 12 9 11 15 16 16 15 15 14 14 16 17 16 15 15 15 14 13 12
7 5 5 5 5 6 6 5 3 4 3 7 5 8 7 4 8 10 11 8 5 5 0 4 4 3 3 4 7 14 16 17 18 18 18 17 16 16 16 16 17 18 18 19 21 23 24 23 21 22 23 21 19 17 16 15 14 14 13 14 15 16 17 17 17 16 15 14 13 13 14 14 14 15 14 14 15 15 13 11 9 11 13 15 16 14 13 13 13 13 14 14 13 13 13 12 11
7 5 5 5 6 6 5 5 4 4 3 6 5 9 8 5 8 9 10 7 3 3 1 4 3 1 1 3 5 16 19 19 19 19 20 18 17 16 16 16 17 17 17 19 21 22 23 23 22 22 22 20 19 18 17 16 15 15 14 15 16 17 17 17 17 15 15 14 14 15 14 14 14 14 13 13 16 16 14 13 10 9 10 13 14 13 13 13 12 11 12 12 12 11 11 10 10
7 6 6 5 7 6 4 5 3 1 3 5 7 10 9 8 8 9 8 5 3 4 1 3 4 2 4 3 8 18 20 20 19 19 20 19 18 17 17 17 17 17 17 19 20 20 22 22 22 21 21 20 19 19 18 18 17 16 15 16 16 17 17 17 16 15 15 16 16 17 16 16 15 13 12 13 15 15 16 14 11 10 10 12 14 14 15 14 13 12 11 11 10 10 9 8 8
8 6 6 6 7 4 2 1 1 3 3 5 8 9 9 10 9 11 8 3 3 2 2 4 4 3 4 7 11 17 19 20 20 19 20 20 18 16 17 17 17 17 17 18 19 19 20 21 22 21 21 21 21 20 20 18 18 16 15 16 16 16 16 17 17 17 17 18 18 17 17 17 16 13 12 14 15 14 15 14 12 11 11 12 14 15 16 15 14 13 11 9 9 8 7 6 6
9 5 6 7 3 3 5 3 3 3 5 7 8 9 10 9 9 11 9 5 5 2 5 5 6 5 6 10 13 15 18 19 19 19 19 18 17 16 17 17 16 17 18 18 18 19 19 20 21 21 22 22 21 20 20 19 18 17 16 16 15 16 17 17 19 19 19 19 18 16 16 16 15 13 12 14 16 15 15 15 14 13 12 12 14 15 15 16 15 13 11 10 8 7 7 5 4
10 7 7 5 1 4 3 2 2 3 6 8 9 9 10 8 8 10 9 9 4 2 3 4 7 8 9 12 14 15 18 18 18 18 16 16 15 15 15 16 15 15 16 17 18 19 21 21 22 22 23 22 21 19 20 19 19 18 16 15 15 17 18 18 20 20 18 18 18 16 15 15 14 13 11 13 15 15 15 14 13 13 12 11 12 12 14 16 15 14 12 11 10 8 7 5 4
8 8 8 2 2 1 3 2 2 5 7 8 9 10 9 8 9 9 10 8 1 6 5 1 5 12 13 14 15 16 18 18 17 17 17 16 16 17 16 14 14 14 15 16 18 19 21 22 21 22 22 21 20 19 19 19 19 19 17 16 17 18 18 18 20 20 18 18 18 17 15 15 13 12 12 13 14 14 14 14 12 11 10 10 10 8 11 14 14 15 14 12 11 9 8 6 6
6 9 10 3 2 3 2 1 5 7 9 9 9 10 9 10 10 8 8 7 3 6 6 4 4 13 14 15 16 17 18 17 17 18 18 18 17 17 15 13 12 14 16 16 18 19 19 19 19 21 21 19 19 18 19 20 19 18 18 17 17 18 18 19 20 20 20 20 18 17 15 15 13 13 14 13 14 14 14 13 12 11 9 9 10 7 8 12 13 13 13 13 12 10 8 7 8
8 8 11 8 7 7 4 6 7 8 10 9 9 10 10 11 10 7 8 9 7 7 4 3 6 13 13 15 17 18 19 19 19 17 18 20 19 19 18 17 15 15 15 14 17 18 17 17 17 18 19 20 20 19 20 20 19 18 19 17 18 18 17 19 19 19 20 20 18 17 16 15 13 14 14 14 14 13 13 13 12 12 10 10 10 8 9 10 9 10 12 11 10 8 7 8 8
11 7 7 8 8 9 9 9 9 9 10 10 11 12 11 11 9 8 10 9 6 5 2 4 10 14 14 16 18 19 19 19 19 16 16 17 18 20 19 18 18 17 16 14 14 15 17 17 17 18 20 20 20 20 20 20 20 19 18 17 17 18 17 19 19 18 19 18 17 16 16 15 13 14 15 14 14 14 14 14 13 12 11 11 10 9 9 9 8 8 9 8 7 7 7 7 7
13 10 6 7 8 8 9 10 10 10 11 10 10 12 11 9 10 12 13 5 3 2 4 10 14 15 15 16 17 19 18 18 18 16 15 14 16 16 14 16 19 23 24 20 16 15 17 18 17 18 19 19 18 20 19 19 20 18 17 17 16 17 17 18 18 18 19 17 15 15 15 15 14 13 14 14 15 15 14 14 14 13 12 10 10 9 7 7 7 7 7 6 7 7 6 7 7
10 13 10 9 9 8 8 10 11 10 10 9 10 13 10 6 9 10 6 3 4 4 9 13 15 15 15 15 16 18 18 18 17 15 14 14 16 13 12 17 24 29 27 23 20 17 16 16 16 17 18 18 18 19 19 19 19 17 16 17 16 15 14 15 15 16 16 16 15 15 14 14 14 14 14 15 15 15 14 14 14 14 12 11 10 9 8 7 7 7 7 7 7 7 7 7 7
3 9 10 10 10 9 8 9 10 10 10 10 11 12 8 4 8 5 5 7 4 7 10 12 14 15 14 14 16 17 17 18 17 15 14 17 18 13 13 16 24 30 26 22 21 17 16 17 18 18 17 17 18 20 20 19 19 18 17 18 17 14 13 14 14 14 14 14 15 15 14 14 15 14 14 15 15 14 14 13 12 12 11 10 10 10 10 9 8 8 8 8 8 8 7 7 7
4 7 8 9 9 8 8 8 9 8 9 10 10 11 8 6 10 6 6 5 3 7 9 12 13 14 14 15 15 15 16 17 16 15 15 19 19 16 13 13 22 28 24 20 19 17 18 18 19 18 16 18 20 21 22 21 20 19 19 19 18 15 15 15 15 15 14 14 15 15 15 15 15 14 13 14 14 13 13 11 10 9 8 8 8 8 10 10 9 9 9 9 8 8 8 8 8
6 7 7 7 8 8 8 7 7 7 7 5 6 10 10 9 12 6 5 3 4 6 9 11 12 13 14 15 15 15 16 17 17 16 16 20 19 16 13 14 22 26 24 22 21 21 21 20 19 19 18 20 22 23 22 21 20 19 19 19 17 16 16 17 17 17 16 15 16 15 15 15 14 13 12 12 12 12 11 9 7 6 7 8 7 7 8 9 8 8 8 8 8 7 8 8 7
6 6 6 5 7 6 5 3 4 6 4 3 5 7 6 10 12 3 6 3 6 8 9 11 12 12 13 15 15 15 16 18 19 18 19 21 20 17 18 21 26 28 30 32 29 27 26 24 22 22 22 23 24 24 22 20 20 19 18 19 17 15 16 17 17 17 16 16 16 16 16 15 14 12 12 11 11 11 10 9 7 6 7 8 8 7 7 7 6 6 6 7 7 7 7 7 7
5 4 5 5 6 4 7 3 3 4 2 4 8 7 4 7 8 4 5 5 8 8 10 11 11 12 14 14 14 15 16 18 19 19 20 22 21 20 23 25 25 27 32 33 29 26 27 26 25 25 25 25 24 22 20 19 19 19 18 18 17 16 17 17 17 17 17 16 16 16 16 16 14 13 11 11 11 11 10 9 8 8 8 8 8 7 7 7 6 5 5 6 7 7 7 8 9
5 4 5 5 5 3 7 4 2 1 3 5 8 6 5 5 6 6 5 6 7 8 10 12 12 13 14 14 14 15 16 17 19 19 22 23 22 23 26 27 26 27 29 28 25 25 26 26 26 24 24 25 23 21 20 19 18 18 18 17 16 16 18 18 16 17 16 17 17 17 17 16 14 13 12 12 12 11 10 10 10 9 9 9 8 8 7 7 7 6 6 6 6 7 8 8 8
5 6 5 4 4 3 5 6 3 2 0 5 6 6 5 3 6 5 5 5 6 7 9 12 13 13 14 13 13 15 15 17 18 18 22 24 24 25 28 28 27 29 29 27 27 25 24 25 25 23 22 22 21 20 20 20 19 17 16 15 14 17 19 17 16 17 17 17 18 17 17 16 14 14 13 13 13 11 10 10 11 10 9 9 8 8 8 7 7 7 7 7 6 6 7 6 6
6 6 5 3 4 3 2 6 6 2 3 4 5 6 7 4 4 4 4 5 6 7 9 11 12 12 14 14 14 15 16 18 18 18 21 26 27 28 29 29 28 29 29 29 28 24 22 24 24 21 19 19 20 21 20 20 19 18 17 14 14 17 16 14 15 17 17 17 17 17 16 15 14 14 14 14 13 11 9 10 11 10 9 9 9 9 9 8 7 7 7 7 6 7 7 7 8
5 6 5 4 5 6 4 2 3 2 5 6 7 7 9 9 7 6 5 5 5 7 8 10 12 13 14 15 15 15 16 18 18 18 21 25 27 29 30 29 30 30 30 30 27 22 22 22 21 20 20 19 20 22 20 20 20 19 17 14 15 17 14 14 16 17 17 17 16 16 15 15 14 14 14 14 13 12 11 11 11 10 10 10 10 9 9 8 8 7 7 7 7 7 7 8 8
2 4 4 4 4 5 4 2 0 3 6 8 9 9 9 10 9 7 6 5 5 7 9 11 13 15 16 17 17 16 17 17 17 18 19 23 26 28 31 31 31 30 29 28 25 21 21 21 20 21 22 21 21 23 22 21 20 19 18 16 18 18 16 17 18 17 17 17 16 16 16 15 14 14 13 13 13 12 11 11 11 10 11 10 9 8 8 8 8 8 7 7 8 7 6 7 8
2 3 5 6 6 4 3 3 3 3 6 8 9 11 11 10 10 8 6 5 6 8 10 12 14 16 17 17 18 17 16 15 17 18 18 22 25 25 31 33 29 25 22 22 21 20 19 20 23 23 22 22 20 21 22 22 20 20 19 18 19 19 19 19 19 18 17 16 16 16 16 15 14 14 13 13 12 12 11 11 11 11 10 9 9 8 8 8 8 8 8 7 7 6 6 8 9
6 6 6 6 7 4 3 3 4 2 4 8 8 10 11 11 12 10 6 6 9 10 11 14 15 16 17 18 19 18 16 15 17 20 20 23 24 22 26 27 22 18 17 18 18 18 19 19 21 21 21 20 19 19 20 21 20 21 20 18 19 19 19 21 20 18 17 16 16 15 15 14 13 13 13 12 11 11 12 12 11 11 10 9 9 10 10 9 9 9 8 7 7 7 7 9 10
7 6 7 7 5 3 2 3 3 3 4 6 7 8 9 11 13 11 9 9 11 11 12 14 16 17 17 18 19 18 17 17 18 21 22 24 25 22 20 19 17 16 16 16 16 16 18 18 19 20 19 18 18 19 20 21 21 21 20 19 19 19 20 21 18 17 17 17 16 14 14 13 12 11 11 11 10 11 11 11 11 11 11 10 9 10 10 10 10 9 7 7 8 8 8 10 11
7 6 7 6 3 2 3 5 5 4 5 7 8 7 8 10 11 12 11 11 10 9 10 13 17 18 19 18 18 19 20 20 20 22 24 24 24 22 19 17 16 17 16 16 16 16 17 17 18 19 17 17 18 19 20 21 21 22 21 19 20 19 19 18 16 16 17 15 14 13 13 13 11 10 10 9 9 10 10 10 10 10 10 9 9 9 10 10 10 9 9 9 9 9 9 10 11
8 9 9 7 4 4 5 4 3 6 8 8 8 7 8 10 12 12 9 9 9 9 10 13 17 19 20 19 18 19 21 22 21 21 24 26 24 21 21 19 17 17 16 15 15 16 17 17 18 18 18 20 19 19 20 22 22 22 22 20 21 20 20 18 17 17 16 14 13 13 12 12 11 10 9 9 9 9 9 9 9 9 9 9 9 8 9 10 10 9 10 10 9 8 8 9 11
8 10 11 10 9 9 9 7 5 7 7 8 7 7 6 7 10 10 8 9 10 10 10 12 16 18 20 20 20 19 20 20 19 20 23 25 24 21 21 19 17 17 16 14 14 15 17 18 19 20 22 23 21 19 21 23 23 23 23 23 24 24 22 20 17 16 16 14 13 12 11 11 11 10 9 9 9 9 9 9 8 8 9 9 9 8 9 10 9 9 10 9 8 8 7 7 9
7 5 7 10 11 10 8 6 5 6 3 5 5 7 5 4 7 8 8 9 11 9 7 9 12 16 19 21 20 19 18 18 17 18 21 22 22 21 19 17 15 14 15 15 15 16 17 19 21 22 23 23 22 22 22 24 25 25 24 23 24 24 22 19 17 15 14 14 12 12 11 11 10 10 10 9 9 9 9 9 8 8 8 9 8 8 9 10 9 9 10 9 8 8 8 6 8
4 4 2 7 7 7 7 7 7 5 2 4 7 7 6 6 6 6 7 9 9 6 2 4 8 12 15 18 18 17 16 17 15 16 18 17 18 18 15 13 11 11 14 16 16 17 18 19 20 22 22 21 20 21 24 24 25 26 24 24 24 23 21 18 16 14 13 12 12 12 11 11 11 10 10 10 9 9 9 8 9 8 8 7 7 8 9 10 10 10 10 10 9 8 8 7 8
4 4 0 4 4 6 7 7 7 4 3 6 9 7 6 8 6 6 7 10 7 3 2 2 3 8 11 14 17 16 13 13 12 14 16 14 15 15 14 16 14 12 16 18 18 18 18 18 18 18 20 20 19 21 24 24 24 24 24 24 23 20 18 17 16 15 14 13 13 12 11 12 12 11 11 11 10 10 9 9 8 8 8 7 7 8 9 9 10 9 9 10 10 9 9 8 8
2 2 3 3 3 5 5 6 6 4 5 8 8 8 7 8 6 6 7 7 3 2 2 3 3 5 8 11 15 14 11 10 11 14 15 15 16 16 17 23 25 21 19 19 18 18 17 15 16 16 17 18 18 21 24 24 23 23 23 23 21 18 17 15 16 16 14 13 13 13 12 11 12 11 11 12 12 11 10 9 9 8 8 7 7 7 7 8 8 8 9 10 10 9 9 9 8
1 3 6 5 5 5 4 6 5 4 7 9 8 9 7 8 4 1 2 1 3 3 3 4 3 3 7 9 12 13 12 13 14 15 16 16 18 18 19 23 26 23 20 17 16 15 11 10 12 13 15 16 18 23 24 23 22 21 21 22 20 18 16 15 16 15 14 14 13 12 12 11 11 10 11 13 13 11 11 11 10 9 9 8 8 7 6 7 7 7 8 9 10 9 9 9 9
4 6 7 5 5 5 5 6 5 7 8 5 5 7 9 9 2 4 5 4 4 4 4 4 2 3 7 9 12 12 12 14 14 14 15 16 19 21 21 21 21 23 22 15 11 8 4 4 6 6 12 16 17 22 23 20 19 20 21 21 19 16 16 16 16 14 14 15 14 13 13 12 11 10 12 13 13 12 12 12 11 10 10 9 9 8 7 7 7 7 7 8 8 8 8 8 8
7 7 6 7 6 6 7 7 6 8 5 3 3 4 7 8 0 5 4 5 5 4 5 4 1 4 6 8 10 11 11 12 13 15 16 17 19 20 18 16 16 19 18 11 6 4 3 3 3 3 7 9 11 16 19 18 19 20 20 20 18 17 17 15 13 13 14 15 16 15 14 12 12 11 12 13 13 13 11 11 10 9 9 9 9 9 9 7 7 7 6 6 7 7 8 8 8
9 8 7 8 7 6 8 7 7 8 4 4 3 4 7 7 2 7 6 6 5 4 5 5 4 5 6 7 8 10 11 11 12 14 15 16 16 15 14 13 12 12 11 9 7 5 5 5 5 6 6 5 10 16 18 19 20 20 19 19 18 17 16 14 12 12 14 15 16 15 13 12 11 12 12 12 13 12 10 9 9 8 8 8 9 9 9 8 7 7 6 6 7 7 7 7 7
10 9 8 8 7 7 7 6 6 7 4 4 4 4 6 6 2 6 6 5 5 4 4 4 5 6 5 7 8 8 9 9 10 11 11 12 12 11 11 11 10 9 10 10 8 7 9 7 6 9 8 8 15 20 21 22 21 20 19 18 17 16 14 13 13 13 14 15 15 14 13 12 11 12 13 11 12 11 10 10 9 8 8 8 8 8 9 8 7 7 6 6 7 7 7 7 7
8 8 8 8 7 6 4 2 2 3 3 4 5 4 3 1 4 5 5 4 5 5 5 5 6 6 6 7 8 8 8 6 6 8 8 9 10 10 10 9 8 8 9 10 9 9 12 9 6 8 9 12 19 23 24 24 22 21 20 18 18 15 12 12 12 12 13 15 15 13 13 12 12 13 12 11 12 12 11 11 9 8 8 8 8 8 9 8 7 6 6 6 6 7 7 7 7
5 7 8 6 5 6 4 1 2 0 6 4 4 5 2 5 4 4 4 4 5 5 5 6 6 6 6 7 7 7 7 6 5 7 7 8 9 8 9 8 7 6 7 10 11 10 10 8 6 8 12 17 22 25 28 27 24 22 20 19 19 16 12 11 11 12 14 16 15 13 13 14 15 14 13 12 13 13 13 12 9 7 7 8 9 10 9 8 7 6 6 6 6 7 7 7 8
5 5 6 4 3 5 5 4 3 4 7 4 4 7 5 5 3 4 5 4 6 5 4 7 7 7 8 8 7 8 7 6 5 6 6 7 8 9 9 8 5 5 7 10 10 10 10 10 9 9 14 22 26 27 28 26 23 22 21 20 19 15 13 11 10 13 16 17 14 13 15 15 16 15 14 15 15 13 12 11 9 7 7 9 10 10 10 9 8 7 6 6 6 6 7 7 7
8 4 3 3 5 6 6 6 6 6 7 5 5 7 5 3 2 5 5 4 7 5 4 6 7 8 9 9 9 9 9 8 7 7 5 5 7 9 9 6 4 5 7 9 8 9 11 11 10 11 16 23 27 27 27 24 23 23 22 20 18 16 14 12 11 14 17 17 14 14 15 14 14 15 15 15 14 13 12 11 9 8 8 10 11 10 10 10 9 8 8 7 7 7 6 7 7
9 6 5 5 4 5 5 5 6 6 6 5 5 6 3 2 3 4 4 4 4 4 5 6 6 7 8 9 10 9 9 8 7 7 5 5 7 9 7 4 4 6 8 8 8 9 11 11 12 14 18 24 26 26 25 25 24 24 23 21 18 16 15 13 13 13 15 16 14 13 13 12 13 14 14 14 13 12 13 11 10 8 8 11 12 11 10 10 10 10 10 8 8 7 7 6 7
9 8 8 7 4 4 4 5 5 5 5 5 5 5 2 4 3 1 3 4 3 4 6 6 8 9 8 9 10 10 10 9 8 7 6 5 5 4 3 3 5 7 8 9 8 8 11 12 13 16 19 23 26 26 26 26 26 24 23 21 19 17 15 14 13 13 14 14 13 12 11 11 12 13 13 13 12 13 14 12 10 8 8 10 12 11 10 10 10 11 10 10 9 8 7 7 8
6 7 8 8 7 5 6 6 6 5 5 5 5 3 3 3 1 1 2 3 4 6 7 7 8 9 9 9 10 10 10 9 8 7 6 5 3 2 1 4 7 8 9 10 9 8 9 11 15 19 20 23 26 27 27 26 26 25 24 22 20 18 17 15 15 14 14 14 14 13 11 11 12 14 14 13 12 14 14 12 11 9 8 10 11 11 11 10 10 11 11 10 9 8 8 9 9
Wind_Direction
165 176 170 164 155 153 184 210 230 198 238 260 248 264 129 113 333 289 204 179 223 114 346 316 310 303 281 280 288 299 318 318 340 344 7 53 138 153 155 158 166 162 156 164 165 163 164 166 167 167 164 158 153 150 150 148 153 160 165 167 168 169 168 168 167 166 166 164 160 159 156 148 145 141 139 140 141 141 140 135 130 129 127 126 125 124 122 121 121 122 121 113 106 102 97 95 93
166 171 163 157 157 177 193 210 254 195 221 255 233 241 74 110 243 264 309 337 326 350 320 305 301 292 266 272 276 272 287 360 20 48 71 108 141 150 159 162 164 160 156 163 163 161 163 166 168 166 162 155 151 149 147 146 148 153 162 169 172 172 171 172 169 169 170 168 163 162 159 152 149 146 145 145 144 145 144 141 136 134 132 130 129 128 124 122 123 125 124 114 110 105 98 96 94
166 160 157 160 164 216 210 203 255 229 232 258 198 98 59 208 186 12 352 325 324 319 306 303 295 278 240 236 236 252 258 58 50 72 105 131 146 155 158 161 164 159 155 160 160 160 163 166 167 165 159 154 150 148 147 146 147 150 157 166 174 175 175 175 172 173 172 169 165 163 160 154 154 151 151 149 146 145 145 144 140 139 136 135 133 129 125 124 124 125 125 117 112 107 100 97 95
163 157 159 177 186 218 214 210 253 252 251 262 168 94 93 50 27 358 335 317 314 305 301 301 287 204 248 242 91 267 231 65 61 93 130 144 159 156 153 161 165 160 155 157 157 159 164 165 164 162 158 154 151 149 148 147 148 150 155 164 172 177 177 177 176 174 170 168 163 159 155 155 156 154 156 150 144 143 146 147 145 143 140 139 137 131 128 125 122 122 123 120 114 107 102 100 97
158 165 163 192 221 211 224 234 246 248 258 295 348 105 94 15 356 334 326 313 307 298 296 292 267 139 242 2 7 301 64 81 117 128 142 153 159 151 153 162 163 160 155 155 156 160 163 164 161 160 158 156 153 151 150 150 149 150 155 162 170 176 177 177 174 171 167 163 158 156 155 154 153 151 159 157 149 150 155 155 152 146 141 142 139 134 132 126 120 117 119 120 115 109 105 102 100
154 171 169 207 256 229 241 235 223 238 248 315 299 75 33 356 344 328 320 313 307 292 280 283 270 178 159 78 38 16 47 113 132 147 147 151 153 151 157 159 159 156 156 156 157 162 163 162 161 159 159 158 155 155 155 154 152 153 156 161 169 172 174 174 172 169 165 161 159 160 157 152 148 147 159 167 158 158 162 159 155 147 144 147 142 137 136 129 123 119 120 119 115 110 107 104 102
161 174 181 207 224 215 244 241 243 244 116 1 303 347 357 348 337 323 319 318 315 267 241 260 274 247 156 125 94 57 61 131 138 159 150 152 150 151 156 157 155 153 157 157 156 163 164 162 160 159 161 160 158 159 159 158 155 154 156 161 167 169 172 172 169 166 162 162 161 158 155 150 150 148 155 169 164 163 166 161 155 150 151 150 142 141 140 135 129 127 125 121 116 111 108 106 103
166 177 194 215 197 208 246 247 256 267 69 18 329 348 346 334 330 321 322 317 309 284 247 254 254 249 142 134 102 66 88 116 146 152 146 152 149 153 156 156 154 151 158 156 157 163 161 161 161 160 162 163 162 163 163 162 157 153 154 159 166 168 170 168 163 161 159 160 158 156 155 152 152 149 150 166 169 169 171 165 158 155 155 149 144 147 146 139 134 131 129 124 118 114 111 108 105
177 199 201 228 227 211 242 243 244 266 283 347 357 356 339 330 332 323 320 309 303 283 255 257 236 226 135 129 101 94 108 115 143 144 146 151 149 155 157 159 154 152 158 156 162 163 159 160 161 163 165 167 168 168 168 165 158 153 153 156 165 168 165 161 158 158 159 159 158 158 155 152 151 150 155 162 169 172 174 169 162 157 152 149 151 154 149 140 135 134 132 129 123 118 114 110 108
190 224 218 234 242 225 234 237 224 206 149 24 359 2 351 342 334 326 322 316 315 280 255 249 227 217 144 133 117 120 124 129 143 142 148 152 150 157 158 161 157 155 160 160 164 163 159 160 163 166 168 172 173 172 171 167 161 156 154 154 162 163 159 155 154 155 159 161 162 162 158 156 154 155 160 159 166 171 173 169 162 156 152 155 160 159 152 142 138 139 137 134 129 123 117 114 112
197 212 234 238 230 235 233 232 209 147 111 52 55 55 0 345 331 332 331 325 328 285 240 215 216 205 166 123 113 134 133 140 146 145 152 155 155 159 159 161 161 162 163 163 165 165 162 160 165 168 172 176 175 175 172 169 164 159 154 151 157 158 154 153 154 155 158 163 164 166 164 163 161 160 158 154 163 167 166 165 162 159 157 161 164 162 158 147 142 144 142 138 133 127 121 118 116
221 186 215 238 233 243 250 264 241 114 150 175 112 60 355 343 342 346 340 335 337 278 198 199 205 191 182 130 123 143 139 149 151 152 155 155 158 161 160 159 162 164 165 167 168 169 166 163 168 171 175 177 174 175 172 170 165 157 150 147 153 154 153 155 158 160 161 165 165 165 163 166 167 162 154 149 151 153 160 168 168 165 161 164 165 164 164 154 147 147 145 140 133 129 126 121 119
238 195 216 240 252 259 264 274 267 277 221 138 94 30 350 351 358 353 340 342 42 251 168 195 221 188 178 120 134 150 147 158 158 156 154 153 158 160 159 158 160 163 167 168 169 173 170 167 171 171 173 173 172 174 172 170 162 154 147 148 153 152 153 158 162 163 162 164 165 165 163 169 170 160 155 153 148 150 160 175 177 174 169 168 167 167 169 162 153 150 147 141 136 131 128 124 121
231 225 240 245 254 258 261 260 232 242 177 113 76 8 346 359 357 354 348 353 57 11 91 174 211 185 160 122 149 163 161 163 160 153 151 153 155 158 160 160 162 165 168 169 170 175 173 169 169 169 169 168 167 169 171 167 159 152 149 150 152 152 154 158 163 164 163 163 164 165 165 169 166 159 158 159 157 157 164 176 182 181 180 175 174 176 174 167 158 152 148 144 140 134 130 128 124
226 231 248 255 252 240 235 243 252 243 140 102 63 2 342 11 356 355 1 348 38 22 145 159 198 189 204 223 175 172 169 160 159 153 152 154 155 159 160 161 165 167 170 172 174 176 175 171 168 167 167 167 165 166 166 162 156 151 149 149 150 153 155 159 163 163 162 162 162 163 162 162 159 157 157 160 163 162 165 173 179 184 187 183 183 183 177 174 165 159 156 151 146 139 135 131 129
224 234 235 247 250 235 206 206 235 236 119 82 34 4 342 12 4 355 1 333 11 30 217 148 170 86 323 292 160 167 164 157 159 155 154 155 155 159 161 163 167 169 173 176 177 176 175 173 171 169 167 169 169 169 166 159 153 150 147 149 152 154 156 159 161 161 161 160 159 155 151 149 150 154 154 156 159 157 159 167 177 185 189 190 190 189 187 184 175 174 171 160 154 146 140 138 136
211 233 234 239 242 234 189 194 214 238 86 57 8 3 342 348 5 354 342 300 333 1 336 136 159 88 24 45 137 159 157 156 159 155 157 159 160 163 165 167 168 173 175 178 181 176 174 173 171 170 168 171 172 171 167 159 151 147 147 150 155 157 159 160 160 161 159 157 155 150 146 144 146 148 152 154 153 155 159 163 172 181 191 197 196 196 196 193 187 189 187 173 163 154 147 146 142
199 220 229 233 239 237 106 160 14 358 15 14 351 358 340 334 355 350 332 283 331 324 163 141 156 119 70 102 137 152 152 157 159 159 161 162 165 166 170 173 171 174 177 180 182 178 174 174 173 171 171 174 175 170 163 160 153 148 151 152 156 159 160 160 160 160 158 156 154 153 149 146 145 144 150 156 153 158 163 164 167 174 189 198 202 203 202 200 199 199 197 188 174 165 160 156 149
214 227 232 238 255 37 58 51 36 355 337 343 338 345 330 328 344 338 332 327 324 256 167 156 156 132 118 128 142 150 151 158 161 165 166 164 167 169 172 177 175 176 180 181 179 177 173 173 173 172 175 176 174 169 162 162 158 154 155 155 159 161 161 163 164 163 162 159 155 157 153 147 146 144 152 160 156 160 166 168 169 176 188 196 205 208 207 207 208 208 206 202 191 182 177 167 159
222 231 239 243 63 56 77 83 46 352 333 327 327 331 315 324 336 325 328 319 309 86 116 167 170 152 144 144 149 153 155 161 163 166 165 163 168 172 177 179 180 181 183 183 182 178 173 175 176 174 178 177 171 167 164 164 161 157 158 162 165 164 164 167 168 166 163 159 157 158 155 150 149 147 153 158 155 158 167 172 174 182 192 199 205 209 212 213 213 215 214 212 206 195 192 184 170
217 225 249 321 52 226 135 122 348 330 323 318 316 314 305 326 324 307 319 310 303 67 48 44 169 157 154 157 160 162 161 161 162 165 166 169 174 178 181 178 180 185 186 186 186 183 180 178 178 178 178 175 170 165 164 166 164 160 161 167 170 169 169 171 172 169 163 161 159 157 156 154 152 150 150 152 153 155 161 167 171 175 182 191 193 196 207 213 218 222 222 221 218 210 208 197 178
231 228 247 287 298 263 143 233 310 319 309 307 305 306 317 324 307 296 310 304 339 22 25 28 132 153 156 164 170 168 163 161 164 171 174 175 177 179 180 176 182 193 193 193 190 185 182 179 177 175 173 172 170 167 169 169 165 161 165 171 175 174 174 178 177 170 164 162 159 157 160 156 151 154 153 153 154 153 154 158 163 163 163 172 176 174 189 206 216 220 222 223 222 215 209 200 190
240 232 237 244 256 265 270 283 294 302 296 300 303 306 317 308 298 306 303 291 319 347 3 42 130 147 154 164 172 170 165 166 169 173 177 177 177 177 177 178 184 193 196 200 198 183 176 181 179 171 173 176 171 171 176 171 165 164 168 174 180 178 177 184 178 167 164 162 161 161 161 157 154 158 157 158 157 155 155 155 156 155 157 164 169 174 183 193 199 208 214 215 213 204 199 199 201
237 244 238 243 255 260 271 283 283 288 288 295 300 298 300 293 300 311 295 294 326 346 25 125 138 144 152 163 172 172 169 171 171 170 172 175 180 179 181 189 190 195 202 203 199 183 174 177 178 172 175 179 176 178 180 174 171 171 171 176 182 183 183 185 177 168 165 161 162 163 160 158 159 162 161 161 160 158 158 157 157 156 160 165 168 171 179 183 183 197 202 197 192 182 187 190 193
232 248 253 252 258 258 267 274 275 282 283 289 291 286 285 288 303 296 285 308 26 28 120 137 141 145 155 166 173 170 170 174 173 172 171 170 175 178 193 208 204 204 206 201 193 190 187 183 181 181 182 183 184 187 186 180 178 175 173 177 184 189 191 186 176 170 165 162 163 164 164 163 163 165 163 163 163 163 163 164 164 163 166 167 169 168 171 174 175 186 181 178 179 165 172 176 173
222 240 252 258 263 265 269 273 276 278 276 283 283 278 277 291 302 282 266 51 73 115 133 141 144 148 156 167 172 170 173 176 177 178 178 177 173 182 217 221 212 206 201 191 185 191 200 196 193 195 194 192 190 190 193 190 183 179 177 180 185 191 193 185 176 171 166 165 166 165 169 167 165 167 168 168 166 168 169 171 173 171 172 169 170 171 170 171 172 177 171 172 170 158 167 166 160
218 241 256 265 270 271 271 273 275 277 273 266 267 274 277 287 285 254 110 83 102 127 137 149 150 151 158 166 171 174 176 179 181 180 180 181 180 197 227 224 210 201 190 178 178 190 202 202 199 197 196 196 194 194 195 191 185 184 183 182 184 186 186 180 174 173 170 170 169 167 170 169 170 170 172 172 168 171 171 174 176 173 172 170 173 175 175 177 176 179 178 177 173 171 174 164 156
260 255 264 259 261 261 254 259 266 268 268 255 255 272 269 256 260 245 91 78 134 140 148 156 156 154 158 168 171 174 177 181 182 183 183 180 183 200 220 222 206 193 181 176 184 196 201 200 199 197 197 200 202 199 194 189 186 188 185 181 184 184 182 178 175 175 175 174 172 171 173 173 174 173 175 174 171 172 172 173 176 174 171 171 180 183 182 183 182 187 190 188 178 176 179 175 169
255 253 265 251 245 247 233 242 260 255 261 260 257 265 247 223 235 225 89 88 154 155 162 160 161 156 158 168 172 175 179 182 183 186 184 178 184 197 198 187 179 173 164 168 186 198 204 204 200 199 201 204 205 200 193 190 188 189 186 181 184 185 181 178 177 177 177 176 176 176 177 176 176 176 179 178 174 173 172 176 180 184 181 180 188 190 194 191 185 197 198 186 174 176 185 182 176
248 233 253 258 243 226 186 202 244 235 242 242 242 257 228 197 212 191 82 146 167 161 169 164 161 157 164 172 174 179 180 184 186 186 182 179 187 191 182 170 165 168 168 171 184 195 202 206 204 203 203 202 202 196 192 193 193 192 187 183 184 184 184 181 178 179 178 178 179 179 179 178 179 181 185 182 179 178 178 181 185 196 197 193 194 193 206 198 182 201 203 186 177 173 178 173 172
239 222 229 246 248 170 129 145 237 221 159 185 223 245 231 174 170 108 83 158 168 170 173 167 165 166 176 179 181 184 182 188 189 187 185 181 184 183 185 186 181 182 178 176 185 195 202 207 206 204 199 197 197 193 191 194 197 196 190 187 185 184 188 185 181 181 181 181 182 183 181 179 180 185 191 186 184 186 186 187 193 206 208 202 201 200 208 198 182 198 199 191 183 167 170 180 186
221 235 219 210 230 154 133 151 243 285 99 173 221 239 239 185 140 104 105 151 170 180 176 172 174 175 184 187 189 189 186 193 191 190 191 183 179 182 185 187 180 175 173 174 184 197 205 208 205 201 196 192 192 192 190 191 197 198 194 194 190 187 191 187 184 185 183 184 184 185 183 180 184 189 193 192 191 191 190 196 201 211 216 211 210 207 204 195 187 197 195 190 184 177 188 194 192
208 233 240 194 211 206 154 155 162 306 17 186 228 257 254 190 147 127 121 154 178 184 181 183 183 181 189 193 193 195 193 194 192 191 193 185 179 183 184 181 174 172 175 180 187 196 204 206 202 198 195 192 191 192 190 190 195 197 198 199 196 195 193 186 187 189 186 187 186 187 186 184 190 193 193 195 195 192 191 204 211 216 220 214 214 205 196 194 195 201 195 186 182 181 184 178 171
195 212 244 222 222 246 179 152 152 219 264 222 230 254 265 255 191 168 147 166 193 195 187 190 193 188 192 199 199 201 201 198 192 186 186 184 181 184 185 183 181 179 182 188 193 195 199 205 203 196 195 193 193 194 191 191 194 196 200 201 199 197 193 187 190 192 189 187 186 188 189 189 192 193 194 198 200 198 196 211 221 221 218 214 213 203 194 194 198 203 198 187 184 175 170 171 172
210 200 229 229 219 236 234 181 138 216 266 253 245 242 249 255 240 215 183 176 205 206 193 193 198 197 197 205 207 204 206 202 193 183 180 181 182 185 187 186 185 183 185 194 199 196 196 204 205 199 199 197 195 195 192 193 192 194 198 198 198 197 193 192 194 194 191 188 188 190 192 193 194 195 198 202 205 206 209 219 223 218 215 216 213 205 198 197 196 198 195 188 185 179 179 183 175
250 208 242 251 224 222 224 222 346 295 278 261 253 252 247 247 243 223 184 172 210 209 202 200 200 202 202 207 211 209 209 205 194 186 182 183 184 186 188 188 188 186 187 196 202 198 194 197 202 202 201 198 196 193 191 192 190 190 193 192 193 193 193 195 196 195 192 190 190 192 197 197 199 202 205 209 210 212 217 221 220 215 214 215 210 200 197 200 196 196 196 192 187 183 180 176 162
266 245 248 250 249 242 174 200 258 277 277 264 252 255 255 250 252 237 190 185 223 211 205 208 205 207 206 206 210 210 209 205 196 190 189 190 187 188 190 190 190 188 187 194 198 198 195 194 200 203 199 198 197 193 191 192 192 190 189 189 191 191 192 193 195 194 191 191 193 196 201 201 205 208 209 212 213 214 216 215 212 208 205 204 200 192 194 197 192 193 199 195 187 179 175 170 159
247 253 251 246 250 248 153 217 265 228 252 265 256 256 253 247 251 244 214 217 234 223 213 213 212 213 213 209 207 207 205 202 199 195 195 196 191 189 192 191 190 186 185 189 191 196 199 198 201 202 198 196 194 193 192 192 196 195 190 191 191 191 192 192 193 191 189 192 196 200 202 202 205 208 208 209 210 212 214 211 206 201 195 196 197 195 194 193 189 193 199 194 183 178 181 178 167
242 244 251 252 255 265 193 197 210 189 235 269 268 264 257 250 250 246 236 238 242 238 228 219 215 217 219 215 206 202 201 199 200 199 198 200 198 193 192 192 191 189 188 190 190 194 197 198 200 199 199 196 192 196 198 196 198 198 196 194 190 191 196 193 189 188 190 194 196 199 199 199 202 203 204 204 202 206 210 210 205 198 195 192 194 196 193 190 192 194 195 191 184 182 184 181 176
233 235 247 243 235 263 224 174 170 220 255 274 284 280 268 257 250 248 241 237 239 234 231 226 222 221 222 220 210 201 200 197 198 200 199 199 199 196 196 198 195 194 194 192 194 196 195 197 200 198 200 203 199 200 202 198 197 197 196 195 190 192 196 192 187 188 192 195 195 196 197 197 196 195 195 195 195 200 206 210 205 198 196 191 189 195 194 193 194 194 195 193 185 184 186 185 184
228 231 246 255 255 263 267 253 260 269 245 243 266 269 257 244 237 237 217 206 220 215 217 224 224 226 226 224 217 206 203 199 196 198 199 200 200 199 205 209 205 203 202 196 197 201 198 198 202 202 206 211 205 199 201 199 197 195 190 189 189 189 192 190 189 190 189 190 193 194 194 192 188 189 189 188 191 197 201 205 204 203 205 197 187 189 193 192 192 193 196 196 186 181 187 194 191
237 223 233 255 266 265 269 269 270 272 236 202 227 254 250 225 223 230 197 189 211 202 206 220 223 227 227 225 220 211 206 202 198 198 200 204 203 203 209 211 208 209 207 204 204 207 206 204 206 208 210 214 208 198 199 199 198 195 189 187 188 188 190 189 188 191 188 187 190 188 187 185 184 186 185 185 189 192 195 199 201 208 216 210 192 184 189 188 187 192 195 192 189 185 184 194 193
250 205 214 242 256 256 256 249 231 259 258 159 201 260 270 226 218 220 199 207 213 196 208 232 231 231 229 227 222 214 207 199 199 198 199 206 205 204 210 208 206 208 209 212 215 214 211 211 215 217 213 212 210 199 196 199 197 195 192 189 189 188 187 185 187 191 186 183 183 180 181 182 183 185 183 185 190 190 194 197 197 202 213 216 203 191 192 189 184 189 193 188 187 190 186 186 190
247 102 179 239 244 241 234 231 229 255 317 172 204 247 270 261 236 202 197 226 218 186 220 252 244 237 230 228 222 216 209 198 199 197 193 201 205 204 203 197 196 207 215 220 218 213 212 212 216 221 216 209 209 199 193 197 198 194 193 189 187 185 182 183 185 183 176 175 177 176 179 181 179 183 185 186 189 191 194 193 192 197 201 205 206 203 200 197 191 191 195 191 187 190 189 187 189
243 93 228 256 250 243 228 227 229 239 275 231 212 217 248 261 235 184 204 230 206 135 31 350 278 244 227 223 213 208 207 197 196 192 184 187 197 203 206 207 212 220 226 227 224 221 221 216 210 217 219 207 202 198 192 194 196 195 193 189 184 178 177 182 181 173 170 173 176 176 179 178 177 181 185 185 187 190 192 191 189 192 194 193 199 206 206 205 205 201 199 199 195 191 190 192 189
246 130 232 245 237 236 223 227 231 213 239 250 218 199 235 263 240 194 205 220 170 67 347 5 332 244 216 212 199 191 190 182 179 177 175 180 185 193 209 217 220 222 225 228 232 233 228 214 200 208 221 211 199 196 191 189 191 194 194 189 182 175 177 183 178 173 174 175 177 178 176 173 174 179 182 182 184 186 187 191 190 191 195 194 196 203 206 207 210 205 196 198 199 194 197 202 194
219 207 219 209 206 207 208 228 239 222 230 246 224 202 236 262 255 94 110 127 46 2 324 343 324 207 183 189 183 177 170 161 162 165 174 188 193 199 211 214 213 218 224 228 236 237 227 212 198 203 224 222 206 197 188 184 189 193 194 191 185 181 182 180 175 176 177 174 173 173 170 166 170 177 180 180 182 184 186 190 191 193 196 198 199 199 202 204 206 205 195 193 196 193 200 209 202
224 233 224 209 195 191 208 210 213 236 236 233 209 204 236 250 246 64 65 60 33 355 339 329 299 166 159 169 166 162 158 154 159 166 177 200 214 218 222 215 209 218 227 226 230 231 215 207 200 202 223 219 201 191 183 180 189 193 194 193 187 184 183 180 179 179 174 170 170 168 168 167 169 177 181 180 182 184 186 187 187 191 195 197 199 198 200 203 203 205 199 191 189 190 197 205 203
216 229 225 222 208 192 215 210 204 234 228 145 161 204 238 246 97 63 59 45 31 9 358 354 31 125 139 146 143 146 155 161 166 173 182 203 217 219 216 208 204 215 221 211 199 181 116 130 162 169 213 210 182 176 175 177 189 193 192 190 185 182 181 180 183 183 175 177 177 171 167 167 170 178 179 176 179 180 178 178 179 186 192 192 195 200 202 203 200 203 202 189 183 188 195 194 196
209 216 215 223 221 204 218 216 215 232 203 135 181 235 245 237 97 54 38 31 26 18 14 22 55 94 116 123 129 141 158 171 177 183 191 203 211 207 199 198 198 198 191 174 174 172 144 146 169 174 191 194 176 177 179 183 191 194 190 186 182 179 178 176 180 182 180 181 179 172 166 165 170 174 172 171 175 173 171 174 179 185 190 187 189 197 201 200 198 199 198 191 186 187 192 190 190
205 217 224 232 237 231 233 234 240 241 198 147 176 221 254 244 113 56 42 40 35 39 43 52 73 83 101 121 132 142 157 174 185 190 195 203 206 200 195 201 200 183 168 169 185 204 196 192 198 198 192 171 175 186 190 187 187 190 188 183 178 175 176 176 178 180 179 176 171 167 164 163 167 170 168 170 173 170 172 180 186 192 193 185 181 188 195 194 196 199 194 189 186 180 180 184 184
196 211 230 236 243 245 245 274 324 289 241 185 187 225 277 173 118 87 71 66 61 60 64 76 96 105 113 123 126 130 139 151 175 182 188 200 202 198 196 198 196 184 173 178 197 215 209 203 194 187 176 162 172 188 190 183 181 186 185 179 174 172 174 175 174 175 176 172 164 163 163 161 165 168 167 172 174 174 179 182 185 193 189 179 174 179 186 187 188 196 190 183 184 174 168 172 173
178 204 223 224 251 261 249 199 95 284 260 229 201 234 179 139 148 119 114 96 76 68 72 82 91 100 106 111 115 124 130 133 160 171 175 189 196 196 191 184 185 192 186 184 196 205 198 188 170 159 160 166 176 184 183 179 180 182 180 176 172 173 175 172 170 171 171 167 161 162 165 163 164 168 169 172 173 176 181 179 176 185 181 171 170 174 178 179 179 187 184 177 177 169 166 171 172
193 208 217 191 228 258 252 240 206 217 245 230 210 237 214 182 192 146 147 120 88 78 77 86 87 88 92 95 101 109 110 106 126 150 158 171 187 193 181 168 179 208 199 188 194 194 175 154 146 156 169 174 178 180 178 179 178 176 178 178 172 173 177 172 170 172 168 163 161 165 167 162 162 166 167 166 166 171 176 173 172 182 179 168 167 166 163 162 167 173 170 163 164 161 162 166 168
233 265 251 215 224 227 218 232 239 235 244 240 223 231 228 221 188 147 152 118 102 110 101 87 83 88 98 103 101 96 92 84 88 112 131 145 165 173 164 157 178 196 191 188 190 182 166 151 147 163 177 176 176 176 175 177 178 176 179 178 172 176 180 173 172 173 168 163 163 167 166 162 161 163 164 164 165 170 172 169 173 182 178 169 165 158 149 151 155 148 137 136 142 144 146 153 159
228 261 249 233 243 245 226 220 235 246 249 245 229 220 219 29 64 124 141 116 103 121 123 104 92 96 106 114 112 101 97 94 88 91 94 115 147 161 155 144 165 177 175 175 179 174 165 160 156 167 178 177 176 174 172 175 179 178 179 177 174 179 179 173 174 173 168 166 167 167 166 167 165 164 166 167 170 174 172 169 171 173 173 169 163 154 147 148 144 132 125 127 128 125 127 137 144
206 221 221 216 218 244 251 230 233 255 254 243 241 225 144 53 35 83 125 119 99 102 110 107 108 112 106 101 103 101 100 101 98 93 85 100 135 167 182 143 151 175 175 160 160 168 167 162 157 168 181 181 179 176 174 176 178 176 178 178 176 178 177 174 174 172 168 169 171 171 170 171 170 171 171 169 172 173 170 169 167 164 166 167 164 158 151 145 141 136 132 127 116 110 115 126 130
223 221 220 218 214 222 236 225 215 238 256 257 263 249 112 81 19 47 124 149 133 119 116 112 111 110 99 91 93 96 94 90 95 97 91 102 116 104 185 173 157 172 184 172 163 163 167 166 161 168 180 184 184 182 178 177 175 174 176 177 176 175 175 174 174 172 171 173 172 171 174 176 175 173 168 165 170 170 168 168 166 162 161 161 162 162 156 148 146 146 141 131 116 109 113 119 123